Location: Clermont
(50.2608°N, 4.3172°E)
Time: 03:57:03
(UTC+00:00)

USA 267 - Pass Details

Date: 13 August 2020
Orbit: 1101 x 1106 km, 123.0° (Epoch: 22 September)

Event Time Altitude Azimuth Distance (km) Brightness Sun altitude
Rises 21:15:00 0° 57° (ENE) 3,929 6.1 -17.3°
Reaches altitude 10° 21:17:31 10° 60° (ENE) 2,970 5.4 -17.5°
Maximum altitude 21:24:04 69° 143° (SE) 1,176 3.2 -18.2°
Drops below altitude 10° 21:30:35 10° 227° (SW) 2,961 5.4 -18.8°
Sets 21:33:05 0° 229° (SW) 3,917 6.1 -19.0°
